Content
SEND FEEDBACK

Daily
Averages
Monthly
Summary
United States of America

RAPID CITY, SOUTH DAKOTA


Home > North America > United States > South Dakota
Elevation: 3162 feet     Latitude: 44 03N     Longitude: 103 04W

WEATHER
 
SELECT A DAY
Number of Records: 200,306;   Date Range: 1/1/95 - 7/26/14
 
SHARE

PRINT THIS DATA

[ ← Previous Day ]
WEATHER ALMANAC - MAY 17, 2013
[ Next Day → ]
[ °C ]   °F
Weather ElementAverageHighLow
Temperature64.5 °F77 °F (2:52 pm)48 °F (4:52 am)
Dewpoint51.8 °F57 °F (11:52 am)45 °F (4:52 am)
Humidity65.6 %90 % (3:52 am)43 % (5:52 pm)
Barometer29.75 in29.82 in (7:52 am)29.66 in (7:52 pm)
Wind Speed8.5 mph24.2 mph (11:52 pm)
Wind Gust35.7 mph (11:52 pm)
Weather ElementAverage
Visibility10 mi
Wind DirectionSE (133 °)

Weather ElementTotal
Precipitation---
Heating Degree Days2.5 (Base 65)
Growing Degree Days12.5 (Base 50)
Averaged from 23 records on May 17, 2013
WEATHER CONDITIONS BREAKOUT
WIND DIRECTION BREAKOUT
WEATHER BY HOUR - MAY 17, 2013
[ °C ]   °F
Local TimeTemperatureDewpointHumidityBarometerVisibilityWind DirectionWind SpeedGust SpeedPrecipitationEventsConditions
1:52 AM50.0 °F46.9 °F89 %29.78 in10.0 miCalmClear
2:52 AM52.0 °F48.0 °F86 %29.81 in10.0 miSW (220°)3.5 mphClear
3:52 AM48.9 °F46.0 °F90 %29.79 in10.0 miWNW (300°)6.9 mphClear
4:52 AM48.0 °F45.0 °F89 %29.80 in10.0 miNW (320°)3.5 mphClear
5:52 AM53.1 °F48.9 °F86 %29.79 in9.0 miNW (310°)5.8 mphPartly Cloudy
6:52 AM60.1 °F53.1 °F78 %29.78 in10.0 miNE (40°)6.9 mph0.00 inRainLight Rain
7:52 AM59.0 °F51.1 °F75 %29.82 in10.0 miNNW (330°)6.9 mph0.00 inClear
8:52 AM64.0 °F51.1 °F63 %29.81 in10.0 miNorth (10°)9.2 mphClear
9:52 AM66.0 °F54.0 °F65 %29.81 in10.0 miNE (40°)4.6 mphClear
10:52 AM69.1 °F55.9 °F63 %29.80 in10.0 miNE (50°)5.8 mphPartly Cloudy
11:52 AM72.0 °F57.0 °F59 %29.78 in10.0 miESE (110°)8.1 mphClear
12:52 PM73.9 °F57.0 °F55 %29.77 in10.0 miEast (80°)9.2 mphMostly Cloudy
1:52 PM75.9 °F54.0 °F46 %29.76 in10.0 miEast (80°)10.4 mph19.6 mphPartly Cloudy
2:52 PM77.0 °F55.0 °F47 %29.74 in10.0 miSE (130°)15.0 mph21.9 mphPartly Cloudy
3:52 PM75.9 °F54.0 °F46 %29.72 in10.0 miSE (130°)11.5 mphClear
4:52 PM77.0 °F54.0 °F45 %29.69 in10.0 miESE (110°)13.8 mphScattered Clouds
5:52 PM75.9 °F52.0 °F43 %29.67 in10.0 miEast (100°)9.2 mphClear
6:52 PM73.9 °F53.1 °F48 %29.67 in10.0 miEast (80°)8.1 mphMostly Cloudy
7:52 PM69.1 °F52.0 °F54 %29.66 in10.0 miENE (70°)6.9 mphClear
8:52 PM63.0 °F51.1 °F65 %29.69 in10.0 miENE (70°)6.9 mphClear
9:52 PM61.0 °F51.1 °F70 %29.70 in10.0 miESE (120°)4.6 mphClear
10:52 PM61.0 °F52.0 °F72 %29.74 in10.0 miNNW (330°)15.0 mphClear
11:52 PM57.9 °F50.0 °F75 %29.75 in10.0 miNNE (30°)24.2 mph35.7 mphPartly Cloudy
Hourly data recorded from KRAP, located miles away from Rapid City, South Dakota







STORIES FROM OUR PARTNERS